STARLINK-30305, 57775

Orbit data source: Space-Track

STARLINK-30305, 57775 is a payload satellite in LEO that was launched on Mon, 04 Sep 2023 UTC via an FALCON 9 launch vehicle from the Air Force Eastern Test Range (AFETR). Payload-class satellites include a variety of spacecraft equipped with specific instruments for various scientific and technological missions. These include communications satellites like Starlink; space stations such as the ISS; scientific satellites like the Hubble; Earth observation satellites from companies like Planet Labs, Umbra, and HawkEye 360; GPS; miniature CubeSats for education and research; and military/defense satellites.

Loading next visibility...
Identifier
57775, 2023-134E
Orbit
LEO
Last TLE update
18 hours ago
Origin
Manufacturer
SpaceX/Seattle
Mission
Operational Commercial Communications
Bus & Motor
STARLINK V2M, Unknown motor
Mass
730 kg wet, ~700 kg dry
Launch date (UTC)
2023-09-04 (2 years ago)
Launch vehicle
FALCON 9
Launch site
Air Force Eastern Test Range (AFETR)
Object type
Payload
Rocket body
Debris
Shape & HBR
Box + 2 Pan, 29 m
Radar Cross Section
33.884 m², Large (>1 m²)

Expand to show TLE details & history

TLE from 18 hours ago
0 STARLINK-30305
1 57775U 23134E   25150.66543160 -.00005897  00000-0 -42149-3 0  9992
2 57775  42.9978 295.6739 0000257 334.2593  25.8237 15.02571862 96892
Epoch: 2025-05-30T15:58Z
TLE epoch observation values (Epoch: 2025-05-30T15:58:13.29Z)
Latitude
0.00003°
Longitude
167.70165°
Altitude
558.586 km
Speed
7.584 km/s
True Right ascension
19h 42m 41s
True Declination
0° 00' 00"
Sunlit
Object was in full shadow at epoch
Visualization orbit readout
Latitude
15.62095°
Longitude
-178.9466°
Altitude
557.955 km
Speed
7.586 km/s
Apparent Right ascension
23h 14m 03s
Apparent Declination
-39° 09' 54"
Sunlit
Object is in daylight
Visualization observer readout
Local Sidereal Time
19:13:26
Azimuth
137.426° SSE
Elevation
-6.274°
Doppler factor
1
Orbital elements
Apogee altitude
561.072 km
Perigee altitude
560.715 km
Semi-major axis
6,939.03 km
Eccentricity
0.00003
Inclination
42.9978°
RAAN
295.6739°
Arg. of periapsis
334.2593°
True anomaly
Unknown
Mean anomaly
25.8237°
Eccentric anomaly
Unknown
Mean motion
3.75487 °/min
Orbital period
95.88 mins
BSTAR
-0.00042149
Loading maneuver chart data...
Loading SW <> Apogee altitude chart data...
Loading historical data...
Loading historical data...
Loading historical data...
Loading historical data...
Loading historical data...
Loading historical data...
Loading historical data...

STARLINK-30305 Visibility forecast

Observer location: undefined°, undefined°

Span
Click to sort rows by Start time (UTC) header in descending order
Start Az.
Max El. time (UTC)
Max El. Az.
Max El.
End time (UTC)
End Az.
6 mins2025-05-31 12:55:21.178Z217.655° SW2025-05-31 12:58:21.178Z150.053° SSE34.646°2025-05-31 13:01:21.178Z84.47° E
6 mins2025-05-31 14:36:21.178Z269.316° W2025-05-31 14:39:21.178Z26.972° NE41.405°2025-05-31 14:42:21.178Z70.074° E
6 mins2025-05-31 16:17:21.178Z293.011° NW2025-05-31 16:20:21.178Z37.883° NE39.1°2025-05-31 16:23:21.178Z84.742° E
6 mins2025-05-31 17:58:21.178Z278.756° WNW2025-05-31 18:00:21.178Z228.645° WSW41.44°2025-05-31 18:04:21.178Z123.877° SE
|